Regional Weather Roundup
Issued by NWS

Home | Current Version | Previous Version | Text Only | Print | Product List | Glossary Off
Versions: 1 2 3 4 5 6 7 8 9 10 11 12 13 14 15 16 17 18 19 20 21 22 23 24 25 26 27 28 29 30 31 32 33 34 35 36 37 38 39 40 41 42 43 44 45 46 47 48 49 50

000
ASUS43 KBIS 310202
RWRND

NORTH DAKOTA REGIONAL WEATHER ROUNDUP
NATIONAL WEATHER SERVICE BISMARCK ND
900 PM CDT THU JUL 30 2015

NOTE: "FAIR" INDICATES FEW OR NO CLOUDS BELOW 12,000 FEET WITH NO
SIGNIFICANT WEATHER AND/OR OBSTRUCTIONS TO VISIBILITY.


NDZ001>003-009>011-017-310300-
NORTHWEST NORTH DAKOTA

CITY           SKY/WX    TMP DP  RH WIND       PRES   REMARKS
WILLISTON      CLEAR     78  45  30 N8        30.13S
MINOT          CLEAR     70  46  42 NW10      30.11S
MINOT AFB      CLEAR     71  51  48 W7        30.10S
$$

NDZ018>021-031>035-040>046-310300-
SOUTHWEST NORTH DAKOTA

CITY           SKY/WX    TMP DP  RH WIND       PRES   REMARKS
BISMARCK       CLEAR     76  50  40 N7        30.11F
DICKINSON      CLEAR     75  48  38 NE5       30.14F
GARRISON         N/A     69  56  62 N7        30.12S
HETTINGER ARPT CLEAR     75  46  35 NE10      30.17S
$$

NDZ004>008-012>016-024-026-027-054-310300-
NORTHEAST NORTH DAKOTA

CITY           SKY/WX    TMP DP  RH WIND       PRES   REMARKS
GRAND FORKS    PTCLDY    71  50  47 NW9       29.99R
GRND FRKS AFB  CLEAR     71  49  46 NW9       30.01R
DEVILS LAKE    CLEAR     68  50  52 NW7       30.05R
$$

NDZ022-023-025-028>030-036>039-047>053-310300-
SOUTHEAST NORTH DAKOTA

CITY           SKY/WX    TMP DP  RH WIND       PRES   REMARKS
FARGO          CLEAR     71  57  61 W8        30.01S
JAMESTOWN      CLEAR     70  54  56 W7        30.08R
$$




USA.gov is the U.S. government's official web portal to all federal, state and local government web resources and services.